STARLINK-2644, 48442

Orbit data source: Space-Track

STARLINK-2644, 48442 is a payload satellite owned by SpaceX/Seattle (US) in LEO that was launched on Sun, 09 May 2021 UTC via an FALCON 9 launch vehicle from the Air Force Eastern Test Range (AFETR). Payload-class satellites include a variety of spacecraft equipped with specific instruments for various scientific and technological missions. These include communications satellites like Starlink; space stations such as the ISS; scientific satellites like the Hubble; Earth observation satellites from companies like Planet Labs, Umbra, and HawkEye 360; GPS; miniature CubeSats for education and research; and military/defense satellites.

Loading next visibility...
Identifier
48442, 2021-040Q
Orbit
LEO
Country
Flag of USUS
Related business
Manufacturer
SpaceX/Seattle
Mission
Partially operational Commercial Communications
Bus & Motor
STARLINK, Unknown motor
Mass
260 kg wet, ~248 kg dry
Launch date (UTC)
2021-05-09 (5 years ago)
Launch vehicle
FALCON 9
Launch site
Air Force Eastern Test Range (AFETR)
Object type
Payload
Rocket body
Debris
Shape & HBR
Box + 1 Pan, 10.1 m
Radar Cross Section
13.562 m², Large (>1 m²)

Expand to show TLE details & history
Last TLE update: 2 days ago

TLE from 2 days ago
0 STARLINK-2644
1 48442U 21040Q   26171.39011844  .00043053  00000-0  88781-3 0  9996
2 48442  53.1589  57.5222 0002093 209.8982 150.1906 15.45486575282453
Epoch: 2026-06-20T09:21Z
TLE epoch observation values (Epoch: 2026-06-20T09:21:46.233Z)
Latitude
-0.00002°
Longitude
8.47412°
Altitude
432.091 km
Speed
7.653 km/s
True Right ascension
03h 50m 05s
True Declination
0° 00' 00"
Sunlit
Object was in daylight at epoch
Visualization orbit readout
Latitude
Unknown
Longitude
Unknown
Altitude
Unknown
Speed
Unknown
Apparent Right ascension
Unknown
Apparent Declination
Unknown
Sunlit
N/A
Visualization observer readout
Local Sidereal Time
21:27:53
Azimuth
Unknown
Elevation
Unknown
Doppler factor
Unknown
Orbital elements
Apogee altitude
431.632 km
Perigee altitude
428.782 km
Semi-major axis
6,808.344 km
Eccentricity
0.00021
Inclination
53.1589°
RAAN
57.5222°
Arg. of periapsis
209.8982°
True anomaly
150.20252°
Mean anomaly
150.1906°
Eccentric anomaly
150.19656°
Mean motion
3.8635 °/min
Orbital period
93.18 mins
BSTAR
0.00088781
Loading maneuver chart data...
Computing Atmospheric mass density...

Documentation

Showing up to 5 results
|